Vertical_Velocity
-1 -0 0 -1 -1 0 0 -2 -5 -4 -1 -3 -2 -0 -2 1 1 -6 -3 1 2 -2 -2 -2 -2 -2 -0 -2 -3 -3 -1 -1 4 -4 -2 -4 -4 -9 1 -3 2 4 6 3
-2 -0 0 0 -0 0 -0 -0 1 1 -9 -1 -5 1 -1 1 -1 1 1 1 0 -2 1 -1 -1 -5 -2 -2 -0 -5 -4 -0 -1 2 3 -6 -10 1 1 4 4 4 5 6
-3 -0 -0 -1 -7 -2 -1 0 -6 -2 -15 -0 -3 -0 -1 1 -1 1 2 -1 -2 -1 2 -1 -1 -3 -0 1 -2 -3 -1 -3 -3 1 0 -0 1 4 3 3 -1 1 1 2
-2 -2 -4 -12 -0 -3 -4 -2 0 0 -2 -1 -2 -2 2 1 0 0 -2 -1 -0 -2 2 -1 0 -0 -0 -1 -1 -2 2 -0 -2 -0 1 -1 -1 3 4 2 1 3 -2 1
-3 -0 -9 -0 0 -4 -5 1 -3 -3 -2 -3 -1 2 1 -1 4 -5 1 -3 -1 0 3 -1 -1 -2 -2 0 -2 0 1 1 1 1 -0 -0 3 4 4 2 4 1 -2 -1
1 1 -2 -5 -0 -0 -0 -1 -0 -1 -1 -0 0 -2 -2 1 -3 -3 -0 -3 0 0 1 -1 -4 -4 1 -1 -2 -1 -1 -2 -3 -1 2 1 -0 3 2 1 -1 1 -2 0
-0 -0 -8 -4 -1 1 -6 -4 -0 -0 -1 1 -2 -5 -1 -1 -2 2 -3 1 0 0 -1 1 -3 -5 -2 -0 -3 1 0 -0 -4 -2 -1 -0 -2 -0 -0 -1 2 2 6 1
2 2 -8 -0 0 -2 -4 -0 -0 0 -0 -1 1 0 -1 2 -2 3 -3 -2 -1 -1 -1 -0 0 -2 -7 -3 -2 -1 0 -3 -2 -1 -1 2 2 2 2 1 1 -2 -0 2
-8 -12 -3 -1 0 1 -0 1 -0 -0 0 0 2 -0 0 -1 -2 2 -1 -2 -2 -1 -1 -1 0 1 -4 -7 -0 -1 -0 -2 -2 -2 -2 -3 0 -0 -0 0 1 -0 -1 -3
-0 -4 -3 -2 2 0 1 1 0 0 0 1 0 1 -1 -2 -2 2 -0 -1 0 -2 0 -2 1 -1 -1 -3 -3 0 1 -1 -1 0 -0 -1 -1 -2 -2 -4 -3 -3 -1 -1
-3 -3 -1 1 1 -0 1 1 -0 0 1 0 0 -0 0 -1 -0 1 2 -2 1 -0 -1 -1 -2 2 -1 -1 -2 -0 -0 -1 -1 -1 -1 -1 -1 -1 -1 -1 -1 -1 -0 -0
-6 -3 -2 -3 3 3 -1 -2 0 -0 -1 1 -1 -0 1 -0 1 -1 -1 -2 -0 -1 -2 -0 -3 -0 1 -1 -2 0 -1 -1 -1 -0 -0 -0 0 -0 0 -0 -1 -1 -1 0
-3 -1 -3 -2 -0 1 -3 -1 -0 -1 0 1 0 -0 -0 -0 -0 -1 0 2 -1 -0 -1 -1 -1 -1 -1 -1 -2 -1 -1 -0 -0 -1 -1 1 1 -0 -0 0 0 -0 -0 -0
-1 -1 -2 0 -1 1 1 -1 -1 -0 -0 0 1 0 0 1 1 -1 0 5 2 0 -2 -1 -0 0 -1 -2 -1 -0 -1 -2 -2 -1 -0 -1 -1 -0 1 1 1 1 0 -1
-1 -1 -1 0 -2 -2 -1 -1 -1 0 -0 -1 0 1 -1 -2 -2 -1 1 2 3 2 -0 -0 -2 -1 -0 -0 0 -0 -1 0 0 0 -0 -0 -0 -1 -1 -0 0 0 0 -1
1 -1 -1 -1 0 -1 -1 -1 0 1 0 0 0 0 1 1 1 0 1 0 -2 -3 -2 0 1 0 -0 1 1 -1 -1 0 1 0 -0 -1 -1 -0 0 -1 -2 -1 0 1
-2 -1 -0 -1 -2 -0 0 1 -0 0 1 -1 -0 -0 0 1 -0 -1 -0 1 2 5 2 2 0 -1 -0 -0 -0 -0 -1 -0 -1 -1 0 -0 -0 -0 -0 0 1 1 -0 -1
-1 0 -0 -0 -2 -2 -1 1 -1 -0 -1 1 -0 1 -0 -1 0 0 -0 0 1 1 2 -2 1 -0 0 0 0 0 -1 -0 -0 -1 -1 -1 -0 -1 0 0 -1 -1 -1 -0
1 1 1 2 2 1 -1 -0 1 0 1 1 -0 -1 1 2 2 3 1 1 -0 -2 -2 -1 -1 -0 0 1 1 0 -1 -0 -1 -1 -1 -1 -1 -1 -1 -1 -1 -2 -1 -1
-0 -1 2 1 1 -1 1 2 -1 1 3 2 1 1 1 0 0 2 1 1 4 8 3 1 1 0 -0 0 -0 -1 0 -1 -2 -1 -1 -1 -0 -0 -1 -0 -1 -1 -0 -0
1 -2 1 -2 -1 -0 0 -2 -2 -1 -0 2 2 1 2 3 1 0 -2 -2 2 1 2 1 1 -0 0 1 -0 -0 1 -0 -2 -2 -1 -1 -1 -1 -0 -0 -1 -1 -0 0
-1 -0 -1 -1 -0 -0 -0 -2 -2 -2 -0 1 1 1 0 0 2 0 -2 0 3 2 0 0 -0 -0 0 1 1 1 1 -1 -2 -2 -2 -1 -1 -1 -1 -1 -1 -1 -2 -1
0 0 -0 -1 -1 -2 -2 -2 -2 -2 -1 -0 2 1 -1 2 1 -1 -4 0 1 1 1 2 2 0 -1 0 0 1 0 -1 -2 -2 -1 -1 -1 -1 -0 -1 -1 -1 -1 -0
-0 -1 -1 -1 -1 0 0 -0 -1 -0 0 -1 -2 1 2 1 0 3 -1 3 4 2 1 0 -0 1 1 -0 0 1 0 -1 -2 -1 -0 0 -0 -0 -1 -1 -0 -1 0 -1
-0 -0 -1 -0 -1 -1 -1 -1 -1 -0 -0 1 0 0 -0 0 4 3 -2 -1 -0 2 2 0 1 1 2 0 0 0 -1 -1 -1 -1 -0 -1 -0 -1 -1 -1 -1 -1 1 1
-1 -2 -1 -1 -1 -1 -1 -0 0 -1 -0 -0 0 1 0 -0 2 3 2 -3 -4 2 2 2 0 -0 2 0 1 1 -0 -1 -1 -1 -1 -1 -0 -0 1 0 -0 -0 -1 1
-0 1 2 1 -1 -1 -1 -1 -1 -0 0 -0 -0 -0 0 1 1 -1 -1 1 1 -4 3 1 -2 -0 0 1 0 -0 0 -1 0 -1 -1 -1 -1 -1 0 -0 -1 -1 -1 0
Height
1487 1486 1490 1488 1488 1493 1497 1494 1495 1486 1488 1474 1470 1470 1469 1467 1463 1461 1460 1457 1453 1449 1447 1443 1440 1438 1436 1434 1432 1431 1429 1427 1425 1424 1424 1423 1423 1425 1426 1427 1427 1427 1426 1426
1495 1486 1488 1489 1485 1486 1486 1486 1488 1486 1480 1469 1465 1465 1465 1463 1462 1460 1457 1454 1451 1449 1446 1442 1439 1438 1436 1433 1430 1428 1426 1425 1423 1422 1421 1420 1421 1425 1424 1425 1425 1425 1425 1426
1498 1487 1488 1486 1476 1475 1477 1478 1478 1485 1469 1463 1461 1463 1462 1460 1459 1457 1454 1452 1451 1449 1445 1441 1439 1437 1435 1431 1428 1426 1425 1423 1423 1422 1421 1421 1423 1423 1423 1424 1424 1426 1427 1430
1497 1490 1491 1464 1463 1465 1469 1469 1471 1467 1462 1461 1461 1461 1459 1456 1457 1454 1453 1452 1451 1448 1445 1442 1440 1437 1435 1432 1429 1427 1426 1424 1424 1423 1423 1424 1424 1425 1425 1425 1426 1427 1430 1434
1494 1490 1473 1456 1462 1464 1464 1458 1459 1461 1459 1458 1458 1457 1456 1456 1454 1454 1454 1453 1451 1448 1445 1442 1440 1437 1435 1433 1431 1430 1428 1427 1427 1427 1427 1427 1427 1427 1428 1429 1430 1432 1431 1438
1484 1483 1481 1456 1453 1453 1454 1458 1454 1456 1455 1455 1454 1456 1454 1454 1455 1455 1454 1453 1452 1449 1447 1443 1441 1440 1439 1436 1435 1433 1432 1431 1431 1431 1431 1431 1432 1432 1434 1435 1436 1438 1441 1441
1476 1476 1469 1454 1452 1453 1459 1462 1453 1453 1452 1452 1454 1453 1452 1453 1454 1454 1453 1453 1452 1451 1449 1447 1445 1444 1443 1441 1440 1439 1437 1437 1437 1437 1437 1438 1439 1439 1441 1441 1442 1443 1444 1445
1471 1475 1473 1450 1453 1455 1452 1451 1451 1450 1450 1449 1449 1449 1450 1451 1453 1453 1453 1453 1453 1453 1452 1450 1449 1448 1448 1447 1446 1445 1444 1443 1443 1444 1444 1444 1445 1445 1446 1446 1447 1448 1448 1449
1464 1460 1449 1448 1448 1449 1448 1448 1448 1448 1448 1446 1445 1445 1446 1448 1451 1452 1452 1453 1454 1454 1454 1452 1452 1451 1450 1451 1451 1450 1449 1448 1449 1449 1449 1449 1450 1450 1450 1451 1451 1451 1451 1451
1455 1445 1446 1447 1447 1446 1444 1446 1447 1446 1445 1443 1442 1443 1443 1446 1448 1449 1450 1452 1453 1454 1454 1453 1453 1453 1452 1452 1453 1454 1453 1453 1453 1453 1453 1453 1453 1453 1453 1453 1452 1452 1452 1452
1449 1444 1444 1443 1444 1444 1445 1445 1445 1444 1442 1440 1439 1440 1441 1443 1445 1447 1449 1450 1451 1452 1453 1453 1453 1454 1454 1454 1455 1456 1456 1455 1455 1455 1455 1455 1455 1455 1455 1454 1454 1453 1452 1451
1443 1439 1441 1441 1441 1441 1440 1439 1439 1438 1438 1437 1436 1437 1438 1440 1442 1444 1446 1447 1449 1450 1451 1452 1453 1454 1455 1456 1456 1457 1457 1457 1457 1457 1457 1457 1457 1456 1456 1455 1454 1453 1451 1450
1435 1437 1438 1438 1438 1437 1436 1435 1434 1433 1433 1433 1433 1433 1434 1436 1438 1441 1442 1444 1446 1447 1449 1451 1452 1454 1455 1456 1456 1457 1457 1457 1457 1457 1457 1457 1457 1456 1455 1453 1451 1450 1449 1448
1433 1434 1434 1433 1433 1433 1432 1431 1429 1429 1429 1429 1429 1429 1431 1433 1435 1437 1439 1441 1443 1444 1446 1449 1450 1453 1454 1455 1455 1456 1457 1457 1457 1457 1457 1456 1455 1454 1453 1452 1451 1449 1447 1446
1430 1431 1431 1429 1428 1427 1425 1425 1425 1425 1425 1426 1426 1426 1427 1429 1431 1435 1437 1439 1440 1441 1444 1446 1449 1451 1452 1453 1454 1455 1456 1456 1456 1456 1455 1455 1454 1453 1452 1451 1449 1447 1445 1443
1427 1427 1426 1425 1423 1422 1421 1420 1420 1421 1421 1422 1422 1423 1424 1426 1429 1432 1434 1436 1437 1438 1440 1444 1447 1449 1451 1452 1453 1453 1454 1455 1455 1455 1454 1453 1453 1452 1450 1448 1446 1444 1442 1440
1423 1422 1422 1420 1419 1417 1416 1416 1416 1417 1417 1417 1418 1419 1421 1423 1425 1427 1430 1433 1436 1438 1439 1442 1445 1447 1448 1450 1451 1452 1453 1453 1453 1453 1453 1453 1451 1450 1448 1445 1443 1441 1439 1436
1420 1420 1419 1418 1415 1413 1412 1411 1411 1411 1412 1414 1414 1415 1416 1418 1420 1423 1426 1429 1432 1434 1436 1439 1443 1444 1446 1448 1449 1450 1451 1451 1452 1452 1451 1450 1449 1447 1445 1443 1440 1438 1435 1433
1418 1417 1416 1414 1412 1411 1409 1407 1407 1408 1408 1409 1410 1411 1413 1415 1418 1420 1422 1425 1428 1430 1433 1436 1439 1442 1444 1445 1447 1448 1448 1449 1450 1449 1449 1448 1446 1444 1442 1439 1436 1434 1432 1429
1416 1415 1414 1412 1410 1408 1407 1406 1405 1404 1404 1405 1406 1407 1409 1411 1414 1416 1418 1421 1424 1428 1432 1434 1437 1439 1441 1442 1444 1445 1446 1447 1447 1447 1446 1445 1443 1440 1438 1435 1433 1430 1428 1426
1415 1414 1412 1411 1409 1407 1406 1405 1404 1403 1403 1403 1403 1405 1406 1408 1410 1412 1415 1418 1422 1426 1429 1432 1435 1436 1438 1440 1441 1442 1443 1444 1444 1444 1443 1441 1439 1437 1435 1432 1430 1427 1425 1422
1415 1413 1412 1410 1408 1406 1405 1404 1403 1402 1401 1401 1401 1402 1403 1405 1406 1407 1410 1416 1421 1423 1425 1429 1431 1434 1436 1437 1439 1440 1440 1441 1441 1440 1439 1437 1436 1434 1432 1430 1427 1425 1422 1420
1414 1412 1411 1409 1407 1405 1404 1403 1403 1402 1400 1400 1400 1400 1400 1402 1402 1403 1406 1412 1416 1419 1423 1426 1428 1431 1432 1434 1436 1437 1438 1438 1438 1437 1435 1434 1432 1431 1429 1427 1425 1422 1420 1418
1413 1412 1410 1408 1407 1405 1404 1402 1401 1400 1400 1399 1398 1398 1398 1399 1400 1402 1407 1410 1414 1417 1420 1423 1425 1427 1429 1431 1432 1434 1434 1434 1434 1433 1432 1431 1429 1428 1426 1425 1422 1420 1417 1415
1412 1410 1409 1408 1406 1405 1403 1402 1400 1399 1398 1397 1396 1396 1396 1397 1400 1402 1404 1406 1411 1414 1417 1420 1422 1424 1426 1427 1429 1430 1431 1431 1431 1430 1428 1427 1426 1425 1423 1422 1420 1417 1415 1412
1411 1410 1408 1406 1405 1403 1402 1400 1399 1397 1396 1395 1395 1394 1394 1395 1397 1399 1401 1403 1407 1411 1414 1416 1418 1420 1423 1424 1426 1427 1427 1427 1427 1426 1425 1424 1423 1422 1421 1419 1417 1415 1412 1409
1409 1408 1407 1406 1404 1402 1400 1398 1397 1396 1394 1393 1393 1392 1392 1393 1394 1395 1398 1401 1403 1406 1410 1412 1414 1417 1419 1421 1422 1423 1424 1424 1423 1422 1422 1421 1420 1419 1418 1416 1414 1412 1409 1406